| time (UTC) | temp F | wind direction | speed MPH | gust MPH | rain 1hr in | rain 24hr in | rain mn in | humidity % | barometer mb |
| 20260503004556 | 47 | 65 | 2.0 | 6.0 | 0.04 | 0.05 | 0.05 | 94 | 1013.6 |
| 20260503003116 | 47 | 72 | 2.0 | 8.0 | 0.02 | 0.02 | 0.02 | 94 | 1013.7 |
| 20260503001546 | 47 | 75 | 1.0 | 9.0 | 0.02 | 0.02 | 0.02 | 94 | 1013.9 |
| 20260503000149 | 47 | 29 | 3.0 | 12.0 | 0.01 | 0.01 | 0.01 | 94 | 1013.9 |
| 20260502234534 | 47 | 96 | 4.0 | 14.0 | 0.01 | 0.01 | 0.01 | 93 | 1014.0 |
| 20260502233044 | 47 | 38 | 2.0 | 9.0 | 0.01 | 0.01 | 0.01 | 93 | 1014.1 |
| 20260502231542 | 47 | 90 | 3.0 | 9.0 | 0.00 | 0.00 | 0.00 | 93 | 1014.0 |
| 20260502230017 | 47 | 64 | 3.0 | 8.0 | 0.00 | 0.00 | 0.00 | 93 | 1014.0 |
| 20260502224547 | 47 | 67 | 3.0 | 9.0 | 0.00 | 0.00 | 0.00 | 93 | 1014.1 |
| 20260502223110 | 47 | 73 | 2.0 | 10.0 | 0.00 | 0.00 | 0.00 | 93 | 1014.1 |
| 20260502221505 | 47 | 55 | 2.0 | 9.0 | 0.00 | 0.00 | 0.00 | 92 | 1014.1 |
| 20260502220134 | 47 | 71 | 3.0 | 11.0 | 0.00 | 0.00 | 0.00 | 92 | 1014.0 |
| 20260502214524 | 47 | 67 | 4.0 | 13.0 | 0.00 | 0.01 | 0.00 | 92 | 1014.1 |
| 20260502213015 | 47 | 74 | 5.0 | 12.0 | 0.00 | 0.01 | 0.00 | 91 | 1014.1 |
| 20260502211552 | 47 | 69 | 6.0 | 10.0 | 0.00 | 0.01 | 0.00 | 91 | 1014.0 |
| 20260502210134 | 48 | 61 | 5.0 | 12.0 | 0.00 | 0.01 | 0.00 | 91 | 1014.2 |
| 20260502204601 | 48 | 61 | 2.0 | 10.0 | 0.00 | 0.08 | 0.00 | 91 | 1014.2 |
| 20260502203123 | 48 | 74 | 2.0 | 13.0 | 0.00 | 0.08 | 0.00 | 91 | 1014.1 |
| 20260502201519 | 48 | 75 | 4.0 | 12.0 | 0.00 | 0.08 | 0.00 | 90 | 1014.0 |
| 20260502200012 | 48 | 30 | 4.0 | 10.0 | 0.00 | 0.08 | 0.00 | 90 | 1014.1 |
| 20260502194543 | 48 | 57 | 6.0 | 14.0 | 0.00 | 0.08 | 0.00 | 89 | 1013.9 |
| 20260502193114 | 49 | 342 | 4.0 | 12.0 | 0.00 | 0.08 | 0.00 | 89 | 1013.6 |
| 20260502191615 | 50 | 58 | 5.0 | 14.0 | 0.00 | 0.08 | 0.00 | 87 | 1013.4 |
| 20260502190134 | 51 | 24 | 5.0 | 10.0 | 0.00 | 0.08 | 0.00 | 85 | 1013.3 |
| 20260502184522 | 54 | 58 | 3.0 | 8.0 | 0.00 | 0.08 | 0.00 | 80 | 1013.1 |
| 20260502183010 | 55 | 336 | 1.0 | 4.0 | 0.00 | 0.08 | 0.00 | 77 | 1013.0 |
| 20260502181542 | 55 | 313 | 2.0 | 6.0 | 0.00 | 0.08 | 0.00 | 76 | 1012.9 |
| 20260502180122 | 55 | 311 | 2.0 | 5.0 | 0.00 | 0.08 | 0.00 | 75 | 1012.8 |
| 20260502170109 | 56 | 269 | 1.0 | 4.0 | 0.00 | 0.11 | 0.00 | 76 | 1012.8 |
| 20260502163119 | 56 | 250 | 1.0 | 6.0 | 0.00 | 0.19 | 0.00 | 74 | 1012.8 |
| 20260502161513 | 57 | 225 | 2.0 | 8.0 | 0.00 | 0.19 | 0.00 | 72 | 1012.8 |
| 20260502151622 | 58 | 260 | 2.0 | 8.0 | 0.00 | 0.19 | 0.00 | 73 | 1012.9 |
| 20260502150124 | 58 | 243 | 3.0 | 7.0 | 0.00 | 0.19 | 0.00 | 73 | 1013.0 |
| 20260502123119 | 60 | 237 | 1.0 | 8.0 | 0.00 | 0.20 | 0.00 | 74 | 1013.5 |
| 20260502121527 | 61 | 186 | 5.0 | 13.0 | 0.00 | 0.20 | 0.00 | 73 | 1013.3 |
| 20260502120147 | 62 | 232 | 5.0 | 8.0 | 0.00 | 0.20 | 0.00 | 75 | 1013.4 |
| 20260502114513 | 60 | 190 | 5.0 | 10.0 | 0.00 | 0.20 | 0.00 | 73 | 1013.5 |
| 20260502113049 | 59 | 240 | 2.0 | 7.0 | 0.00 | 0.20 | 0.00 | 75 | 1013.5 |
| 20260502111544 | 61 | 253 | 4.0 | 9.0 | 0.00 | 0.20 | 0.00 | 73 | 1013.6 |
| 20260502110012 | 60 | 228 | 5.0 | 11.0 | 0.00 | 0.20 | 0.00 | 74 | 1013.7 |
| 20260502104539 | 59 | 257 | 2.0 | 8.0 | 0.00 | 0.20 | 0.00 | 77 | 1013.8 |
| 20260502103108 | 59 | 244 | 3.0 | 9.0 | 0.00 | 0.20 | 0.00 | 76 | 1013.9 |
| 20260502101605 | 58 | 227 | 2.0 | 8.0 | 0.00 | 0.20 | 0.00 | 80 | 1014.0 |
| 20260502091504 | 56 | 311 | 3.0 | 9.0 | 0.00 | 0.20 | 0.00 | 83 | 1014.1 |
| 20260502070129 | 51 | 323 | 2.0 | 8.0 | 0.00 | 0.20 | 0.00 | 92 | 1014.0 |
| 20260502064604 | 50 | 343 | 3.0 | 6.0 | 0.00 | 0.20 | 0.00 | 93 | 1014.0 |
| 20260502063117 | 49 | 311 | 1.0 | 4.0 | 0.00 | 0.20 | 0.00 | 93 | 1014.0 |
| 20260502061503 | 48 | 303 | 1.0 | 4.0 | 0.00 | 0.20 | 0.00 | 93 | 1013.9 |
| 20260502060139 | 47 | 332 | 2.0 | 3.0 | 0.00 | 0.20 | 0.00 | 92 | 1013.9 |
| 20260502054527 | 47 | 319 | 1.0 | 4.0 | 0.00 | 0.20 | 0.00 | 92 | 1013.9 |
| 20260502053107 | 47 | 341 | 1.0 | 4.0 | 0.00 | 0.20 | 0.00 | 92 | 1013.8 |
| 20260502051545 | 47 | 346 | 1.0 | 3.0 | 0.00 | 0.20 | 0.00 | 91 | 1013.8 |
| 20260502050005 | 47 | 315 | 0.0 | 0.0 | 0.00 | 0.20 | 0.00 | 91 | 1013.7 |
| 20260502044543 | 47 | 315 | 0.0 | 1.0 | 0.00 | 0.20 | 0.00 | 90 | 1013.7 |
| 20260502043109 | 48 | 315 | 0.0 | 4.0 | 0.00 | 0.20 | 0.00 | 90 | 1013.8 |
| 20260502041505 | 49 | 309 | 1.0 | 3.0 | 0.00 | 0.20 | 0.00 | 90 | 1013.7 |
| 20260502040002 | 49 | 302 | 1.0 | 4.0 | 0.00 | 0.20 | 0.00 | 90 | 1013.8 |
| 20260502034531 | 49 | 303 | 1.0 | 3.0 | 0.00 | 0.20 | 0.00 | 91 | 1013.9 |
| 20260502033106 | 49 | 317 | 1.0 | 4.0 | 0.00 | 0.20 | 0.00 | 91 | 1014.1 |
| 20260502031555 | 48 | 315 | 2.0 | 6.0 | 0.00 | 0.20 | 0.00 | 90 | 1014.2 |
| 20260502030119 | 49 | 355 | 3.0 | 6.0 | 0.00 | 0.20 | 0.00 | 89 | 1014.3 |
| 20260502024602 | 49 | 335 | 2.0 | 5.0 | 0.00 | 0.20 | 0.00 | 89 | 1014.4 |
| 20260502023121 | 50 | 331 | 1.0 | 9.0 | 0.00 | 0.20 | 0.00 | 89 | 1014.4 |
| 20260502021522 | 50 | 327 | 2.0 | 5.0 | 0.00 | 0.20 | 0.00 | 89 | 1014.5 |
| 20260502020140 | 50 | 306 | 2.0 | 6.0 | 0.00 | 0.20 | 0.00 | 89 | 1014.6 |
| 20260502014532 | 50 | 302 | 3.0 | 6.0 | 0.00 | 0.20 | 0.00 | 88 | 1014.9 |
| 20260502013004 | 51 | 331 | 1.0 | 8.0 | 0.00 | 0.20 | 0.00 | 88 | 1015.1 |
| 20260502011540 | 51 | 248 | 3.0 | 9.0 | 0.00 | 0.20 | 0.00 | 88 | 1015.2 |
| 20260502010003 | 50 | 271 | 2.0 | 6.0 | 0.00 | 0.20 | 0.00 | 88 | 1015.3 |